Starlink 31880

operational
NORAD ID: 59661 Int'l Des: 2024-084 Owner: SPXS Country: US Constellation: starlink
LEOCIRCULAR

About Starlink 31880

Description loading...

Live Position

Loading 3D Globe...

Upcoming Passes

Altitude History

Altitude vs Time

uPlot chart will show altitude changes over time

Two-Line Element Set

1 59661U 24084H 25304.60897699 -.00000198 00000-0 23246-5 0 9994
2 59661 43.0044 47.1707 0001344 290.9390 69.1317 15.27579446 84676
Epoch: Oct 31, 2025 • Age: 27 hours

Current Status

Altitude 482.4 km
Velocity 7.63 km/s
Sub-Earth Point 19.48°N, 120.47°E
Launch Date May 6, 2024
Age 1.4 years
Type internet

Technical Details

Classification Payload
Mass 730.00 kg
Dry Mass 700.00 kg
Total Mass 730.00 kg
Length 0.30 m
Diameter 4.10 m
Span 29.00 m
Shape Box + pan
Manufacturer SPXS
Bus Type Starlink V2M
Phase Status In Orbit
Owner/State SPXS/US

Large Constellations

Loading constellations...